Location: Baia Mare
(47.6567°N, 23.5850°E)
Time: 13:48:19
(UTC+03:00)

ISS - Pass Details

Date: 20 July 2019
Orbit: 409 x 418 km, 51.6° (Epoch: 21 July)

Event Time Altitude Azimuth Distance (km) Brightness Sun altitude
Rises 22:25:25 0° 245° (WSW) 2,348 0.3 -9.9°
Reaches altitude 10° 22:27:30 10° 246° (WSW) 1,486 -0.7 -10.2°
Maximum altitude 22:30:51 88° 333° (NNW) 419 -3.8 -10.6°
Drops below altitude 10° 22:34:11 10° 66° (ENE) 1,487 -1.2 -10.9°
Sets 22:36:17 0° 67° (ENE) 2,349 -0.1 -11.2°
